Eagle, AK

10:54 AM AKDT on March 27, 2017 (GMT -0800)
Eagle

Weather History for PAEG - November, 2011

Change the Weather History Date:

Tuesday, November 1, 2011

  Actual Average (PABN) Record (PABN)
Temperature  
Mean Temperature 9 °F -  
Max Temperature 12 °F 15 °F 33 °F (2002)
Min Temperature 8 °F 7 °F 0 °F (1999)
Degree Days  
Heating Degree Days 56    
Moisture  
Dew Point 3 °F    
Average Humidity 75    
Maximum Humidity 84    
Minimum Humidity 67    
Precipitation  
Precipitation 0.00 in - - ()
Sea Level Pressure  
Sea Level Pressure 29.79 in    
Wind  
Wind Speed 3 mph (NW)    
Max Wind Speed 10 mph    
Max Gust Speed 20 mph    
Visibility 10 miles    
Events      
Averages and records for this station are not official NWS values.
T = Trace of Precipitation, MM = Missing Value Source: NWS Daily Summary

Daily Weather History Graph

Daily Weather History Graph

Search for Another Location

Airport or City:

Trip Planner

Search our weather history database for the weather conditions in past years. The results will help you decide how hot, cold, wet, or windy it might be!

Date:

Astronomy

Nov. 01, 2011 Rise Set
Actual Time 9:11 AM AKDT 5:03 PM AKDT
Civil Twilight 8:16 AM AKDT 5:58 PM AKDT
Nautical Twilight 7:18 AM AKDT 6:56 PM AKDT
Astronomical Twilight 6:21 AM AKDT 7:53 PM AKDT
Moon 3:26 PM AKDT (11/1) 10:40 PM AKDT (11/1)
Length of Visible Light 9h 41m
Length of Day
7h 52m
Waxing Crescent, 41% of the Moon is Illuminated
Nov 1
Waxing Crescent
Nov 2
First Quarter
Nov 10
Full
Nov 18
Last Quarter
Nov 24
New

Hourly Weather History & Observations

Time (AKDT) Temp. Windchill Dew Point Humidity Pressure Visibility Wind Dir Wind Speed Gust Speed Precip Events Conditions
12:53 AM 10.9 °F - 6.1 °F 81% 29.72 in 10.0 mi Calm Calm - N/A   Overcast
1:53 AM 10.0 °F 3.6 °F 5.0 °F 80% 29.72 in 10.0 mi West 3.5 mph - N/A   Overcast
2:53 AM 10.0 °F 1.8 °F 3.9 °F 76% 29.72 in 10.0 mi WNW 4.6 mph - N/A   Overcast
3:53 AM 10.0 °F - 3.9 °F 76% 29.71 in 10.0 mi Calm Calm - N/A   Overcast
5:53 AM 10.9 °F - 6.1 °F 81% 29.72 in 10.0 mi Calm Calm - N/A   Overcast
6:53 AM 10.0 °F - 5.0 °F 80% 29.72 in 9.0 mi Calm Calm - N/A   Overcast
7:53 AM 10.9 °F - 6.1 °F 81% 29.73 in 10.0 mi Calm Calm - 0.00 in   Overcast
8:53 AM 10.0 °F - 5.0 °F 80% 29.74 in 10.0 mi Calm Calm - 0.00 in   Overcast
9:53 AM 10.0 °F - 6.1 °F 84% 29.75 in 10.0 mi Calm Calm - N/A   Overcast
11:53 AM 10.9 °F - 5.0 °F 77% 29.77 in 10.0 mi Calm Calm - N/A   Overcast
12:43 PM 10.4 °F 0.8 °F 3.2 °F 73% 29.72 in 10.0 mi NNE 5.8 mph - N/A   Scattered Clouds
12:53 PM 10.0 °F -0.9 °F 3.9 °F 76% 29.78 in 10.0 mi NNE 6.9 mph - N/A   Partly Cloudy
1:19 PM 10.4 °F 4.0 °F 5.0 °F 79% 29.73 in 10.0 mi NE 3.5 mph - N/A   Mostly Cloudy
1:53 PM 10.9 °F - 5.0 °F 77% 29.80 in 10.0 mi Calm Calm - N/A   Overcast
2:25 PM 10.4 °F 4.0 °F 3.2 °F 73% 29.74 in 10.0 mi NNE 3.5 mph - N/A   Scattered Clouds
2:53 PM 10.0 °F -0.9 °F 3.0 °F 73% 29.81 in 10.0 mi WNW 6.9 mph - N/A   Clear
3:53 PM 10.0 °F -1.9 °F 3.0 °F 73% 29.81 in 10.0 mi West 8.1 mph - N/A   Clear
4:53 PM 9.0 °F -3.2 °F 1.9 °F 73% 29.82 in 10.0 mi West 8.1 mph - N/A   Scattered Clouds
5:25 PM 8.6 °F 0.1 °F 1.4 °F 73% 29.76 in 10.0 mi West 4.6 mph - N/A   Mostly Cloudy
5:53 PM 9.0 °F 0.6 °F 1.0 °F 70% 29.83 in 10.0 mi Variable 4.6 mph - N/A   Scattered Clouds
6:04 PM 8.6 °F -1.3 °F 1.4 °F 73% 29.77 in 10.0 mi WSW 5.8 mph - N/A   Mostly Cloudy
6:53 PM 9.0 °F 0.6 °F 1.0 °F 70% 29.85 in 10.0 mi Variable 4.6 mph - N/A   Mostly Cloudy
7:00 PM 8.6 °F -1.3 °F 1.4 °F 73% 29.79 in 10.0 mi Variable 5.8 mph - N/A   Scattered Clouds
7:16 PM 8.6 °F - 1.4 °F 73% 29.80 in 10.0 mi Calm Calm - N/A   Mostly Cloudy
7:53 PM 8.1 °F 1.4 °F 1.0 °F 73% 29.87 in 10.0 mi Variable 3.5 mph - N/A   Mostly Cloudy
8:53 PM 9.0 °F -5.1 °F 1.0 °F 70% 29.89 in 10.0 mi WNW 10.4 mph 18.4 mph N/A   Overcast
9:53 PM 10.0 °F -3.7 °F 1.0 °F 67% 29.92 in 10.0 mi NW 10.4 mph 19.6 mph N/A   Overcast
10:53 PM 9.0 °F -3.2 °F 1.0 °F 70% 29.95 in 10.0 mi NW 8.1 mph 18.4 mph N/A   Overcast
11:53 PM 9.0 °F 0.6 °F 1.9 °F 73% 29.98 in 10.0 mi WNW 4.6 mph - N/A   Overcast